Location: Mizzole
(45.4833°N, 11.0500°E)
Time: 02:44:02
(UTC+00:00)

USA 238 DEB - Pass Details

Date: 21 October 2019
Orbit: 1028 x 1184 km, 63.4° (Epoch: 11 November)

Event Time Altitude Azimuth Distance (km) Brightness Sun altitude
Rises 17:07:47 0° 196° (SSW) 3,768 6.9 -8.9°
Reaches altitude 10° 17:10:26 10° 191° (S) 2,828 6.1 -9.4°
Maximum altitude 17:16:47 49° 119° (ESE) 1,330 3.9 -10.5°
Drops below altitude 10° 17:23:21 10° 46° (NE) 2,922 5.5 -11.7°
Enters shadow 17:25:07 - 43° (NE) 3,540 6.0 -12.0°
